DB0RV-13 Weather Reports


Display with metric or nautical units.
time (UTC)temp
F
wind
direction
speed
MPH
gust
MPH
rain 1hr
in
rain 24hr
in
rain mn
in
humidity
%
barometer
mb
20260831015502 60 285 3.0 0.0 0.00 0.00 0.00 93 1016.0
20260831015001 60 191 4.0 0.0 0.00 0.00 0.00 92 1015.9
20260831014502 60 242 2.0 0.0 0.00 0.00 0.00 91 1016.1
20260831014002 61 265 5.0 0.0 0.00 0.00 0.00 91 1016.2
20260831013501 61 261 8.0 0.0 0.00 0.00 0.00 90 1015.8
20260831013002 61 240 2.0 0.0 0.00 0.00 0.00 89 1015.9
20260831012502 61 263 6.0 0.0 0.00 0.00 0.00 88 1016.4
20260831012002 62 288 10.0 0.0 0.00 0.00 0.00 85 1015.7
20260831011502 64 337 11.0 0.0 0.00 0.00 0.00 78 1015.4
20260831011002 64 338 6.0 0.0 0.00 0.00 0.00 78 1015.7
20260831010501 65 270 7.0 0.0 0.00 0.00 0.00 77 1014.7
20260831010001 65 293 5.0 0.0 0.00 0.00 0.00 76 1014.4
20260831005502 66 279 6.0 0.0 0.00 0.00 0.00 74 1014.0
20260831005001 64 289 7.0 0.0 0.00 0.00 0.00 79 1013.9
20260831004501 64 297 5.0 0.0 0.00 0.00 0.00 77 1013.7
20260831004002 64 219 1.0 0.0 0.00 0.00 0.00 77 1013.5
20260831003501 65 242 1.0 0.0 0.00 0.00 0.00 76 1013.5
20260831003001 65 252 1.0 0.0 0.00 0.00 0.00 75 1013.5
20260831002502 64 244 1.0 0.0 0.00 0.00 0.00 76 1013.6
20260831002001 64 242 2.0 0.0 0.00 0.00 0.00 77 1013.7
20260831001502 64 296 2.0 0.0 0.00 0.00 0.00 78 1013.7
20260831001002 64 320 2.0 0.0 0.00 0.00 0.00 77 1013.6
20260831000501 65 310 1.0 0.0 0.00 0.00 0.00 75 1013.7
20260831000002 63 304 2.0 0.0 0.00 0.00 0.00 79 1013.7
20260830235502 64 321 3.0 0.0 0.00 0.00 0.00 76 1013.5
20260830235001 66 0 0.0 0.0 0.00 0.00 0.00 73 1013.5
20260830234501 65 0 0.0 0.0 0.00 0.00 0.00 73 1013.6
20260830234002 65 0 0.0 0.0 0.00 0.00 0.00 75 1013.6
20260830233501 65 0 0.0 0.0 0.00 0.00 0.00 75 1013.7
20260830233002 64 336 1.0 0.0 0.00 0.00 0.00 80 1013.7
20260830232502 63 328 3.0 0.0 0.00 0.00 0.00 79 1013.7
20260830232001 65 328 2.0 0.0 0.00 0.00 0.00 77 1013.7
20260830231502 65 326 2.0 0.0 0.00 0.00 0.00 74 1013.7
20260830231002 65 71 1.0 0.0 0.00 0.00 0.00 74 1013.9
20260830230501 65 0 0.0 0.0 0.00 0.00 0.00 77 1013.8
20260830230001 66 344 1.0 0.0 0.00 0.00 0.00 74 1013.9
20260830225502 65 47 1.0 0.0 0.00 0.00 0.00 76 1013.8
20260830225001 65 339 3.0 0.0 0.00 0.00 0.00 75 1013.9
20260830224502 67 0 0.0 0.0 0.00 0.00 0.00 70 1014.0
20260830224002 67 37 1.0 0.0 0.00 0.00 0.00 70 1014.0
20260830223501 67 0 0.0 0.0 0.00 0.00 0.00 70 1014.1
20260830223001 67 45 0.0 0.0 0.00 0.00 0.00 71 1014.0
20260830222502 67 335 1.0 0.0 0.00 0.00 0.00 70 1014.1
20260830222001 68 0 0.0 0.0 0.00 0.00 0.00 68 1014.1
20260830221501 68 0 0.0 0.0 0.00 0.00 0.00 68 1014.2
20260830221002 69 0 0.0 0.0 0.00 0.00 0.00 67 1014.3
20260830220501 68 292 0.0 0.0 0.00 0.00 0.00 68 1014.3
20260830220001 67 288 1.0 0.0 0.00 0.00 0.00 71 1014.3
20260830215502 68 245 2.0 0.0 0.00 0.00 0.00 68 1014.2
20260830215001 67 280 1.0 0.0 0.00 0.00 0.00 71 1014.3
20260830214501 68 306 2.0 0.0 0.00 0.00 0.00 69 1014.3
20260830214002 69 269 1.0 0.0 0.00 0.00 0.00 66 1014.3
20260830213501 69 218 1.0 0.0 0.00 0.00 0.00 67 1014.4
20260830213001 67 235 0.0 0.0 0.00 0.00 0.00 71 1014.4
20260830212502 68 330 2.0 0.0 0.00 0.00 0.00 69 1014.4
20260830212001 68 297 1.0 0.0 0.00 0.00 0.00 68 1014.5
20260830211501 69 0 0.0 0.0 0.00 0.00 0.00 66 1014.4
20260830211002 69 0 0.0 0.0 0.00 0.00 0.00 65 1014.4
20260830210501 70 100 0.0 0.0 0.00 0.00 0.00 65 1014.4
20260830210001 70 0 0.0 0.0 0.00 0.00 0.00 64 1014.4
20260830205502 70 0 0.0 0.0 0.00 0.00 0.00 64 1014.5
20260830205001 70 0 0.0 0.0 0.00 0.00 0.00 64 1014.5
20260830204501 70 0 0.0 0.0 0.00 0.00 0.00 64 1014.6
20260830204002 69 0 0.0 0.0 0.00 0.00 0.00 66 1014.6
20260830203501 70 313 0.0 0.0 0.00 0.00 0.00 65 1014.5
20260830203002 70 236 1.0 0.0 0.00 0.00 0.00 65 1014.6
20260830202502 70 215 1.0 0.0 0.00 0.00 0.00 64 1014.7
20260830202001 70 220 2.0 0.0 0.00 0.00 0.00 64 1014.6
20260830201501 71 213 2.0 0.0 0.00 0.00 0.00 62 1014.7
20260830201002 71 211 1.0 0.0 0.00 0.00 0.00 63 1014.6
20260830200501 71 294 1.0 0.0 0.00 0.00 0.00 64 1014.7
20260830200001 70 317 1.0 0.0 0.00 0.00 0.00 65 1014.6
20260830195502 71 308 1.0 0.0 0.00 0.00 0.00 64 1014.6
20260830195001 70 308 2.0 0.0 0.00 0.00 0.00 66 1014.6
20260830194501 70 315 2.0 0.0 0.00 0.00 0.00 64 1014.7
20260830194002 71 306 2.0 0.0 0.00 0.00 0.00 63 1014.7
20260830193501 71 285 1.0 0.0 0.00 0.00 0.00 63 1014.6
20260830193001 71 0 0.0 0.0 0.00 0.00 0.00 63 1014.6
20260830192502 71 0 0.0 0.0 0.00 0.00 0.00 64 1014.7
20260830192001 71 358 1.0 0.0 0.00 0.00 0.00 64 1014.7
20260830191501 71 268 1.0 0.0 0.00 0.00 0.00 63 1014.8
20260830191002 71 243 1.0 0.0 0.00 0.00 0.00 63 1014.7
20260830190501 71 264 1.0 0.0 0.00 0.00 0.00 63 1014.6
20260830190001 71 264 1.0 0.0 0.00 0.00 0.00 63 1014.6
20260830185501 71 240 3.0 0.0 0.00 0.00 0.00 62 1014.6
20260830185002 72 244 2.0 0.0 0.00 0.00 0.00 61 1014.5
20260830184501 72 239 2.0 0.0 0.00 0.00 0.00 59 1014.6
20260830184001 73 242 1.0 0.0 0.00 0.00 0.00 58 1014.6
20260830183501 73 261 2.0 0.0 0.00 0.00 0.00 57 1014.5
20260830183002 73 225 3.0 0.0 0.00 0.00 0.00 55 1014.5
20260830182502 74 240 2.0 0.0 0.00 0.00 0.00 55 1014.4
20260830182001 74 265 2.0 0.0 0.00 0.00 0.00 56 1014.5
20260830181502 74 251 1.0 0.0 0.00 0.00 0.00 55 1014.5
20260830181001 73 256 2.0 0.0 0.00 0.00 0.00 56 1014.4
20260830180502 73 243 2.0 0.0 0.00 0.00 0.00 57 1014.4
20260830180001 74 244 2.0 0.0 0.00 0.00 0.00 57 1014.5
20260830175502 74 245 2.0 0.0 0.00 0.00 0.00 56 1014.5
20260830175001 75 255 1.0 0.0 0.00 0.00 0.00 54 1014.3
20260830174502 75 251 1.0 0.0 0.00 0.00 0.00 55 1014.4
20260830174002 75 241 1.0 0.0 0.00 0.00 0.00 54 1014.3
20260830173501 76 238 1.0 0.0 0.00 0.00 0.00 54 1014.5
20260830173002 75 267 1.0 0.0 0.00 0.00 0.00 53 1014.4
20260830172502 75 247 1.0 0.0 0.00 0.00 0.00 55 1014.4
20260830172002 75 235 1.0 0.0 0.00 0.00 0.00 56 1014.4
20260830171501 75 239 2.0 0.0 0.00 0.00 0.00 53 1014.4
20260830171002 76 241 3.0 0.0 0.00 0.00 0.00 52 1014.4
20260830170501 77 241 3.0 0.0 0.00 0.00 0.00 48 1014.5
20260830170002 77 256 5.0 0.0 0.00 0.00 0.00 49 1014.4
20260830165502 76 272 6.0 0.0 0.00 0.00 0.00 47 1014.4
20260830165001 77 276 7.0 0.0 0.00 0.00 0.00 47 1014.5
20260830164502 77 268 3.0 0.0 0.00 0.00 0.00 46 1014.4
20260830164001 77 284 4.0 0.0 0.00 0.00 0.00 50 1014.5
20260830163502 77 225 2.0 0.0 0.00 0.00 0.00 50 1014.4
20260830163001 76 284 6.0 0.0 0.00 0.00 0.00 50 1014.3
20260830162502 77 272 6.0 0.0 0.00 0.00 0.00 49 1014.4
20260830162002 77 272 7.0 0.0 0.00 0.00 0.00 50 1014.5
20260830161502 77 263 6.0 0.0 0.00 0.00 0.00 49 1014.4
20260830161002 77 283 8.0 0.0 0.00 0.00 0.00 50 1014.4
20260830160502 77 296 5.0 0.0 0.00 0.00 0.00 49 1014.5
20260830160002 77 263 6.0 0.0 0.00 0.00 0.00 49 1014.5
20260830155501 77 274 7.0 0.0 0.00 0.00 0.00 49 1014.6
20260830155002 77 245 4.0 0.0 0.00 0.00 0.00 50 1014.6
20260830154501 77 265 3.0 0.0 0.00 0.00 0.00 51 1014.6
20260830154002 77 330 6.0 0.0 0.00 0.00 0.00 50 1014.7
20260830153501 77 264 6.0 0.0 0.00 0.00 0.00 50 1014.6
20260830153002 77 267 7.0 0.0 0.00 0.00 0.00 51 1014.7
20260830152503 77 245 3.0 0.0 0.00 0.00 0.00 52 1014.7
20260830152001 77 241 3.0 0.0 0.00 0.00 0.00 51 1014.7
20260830151502 77 257 2.0 0.0 0.00 0.00 0.00 51 1014.7
20260830151001 77 278 4.0 0.0 0.00 0.00 0.00 51 1014.7
20260830150502 77 261 7.0 0.0 0.00 0.00 0.00 51 1014.7
20260830150001 77 315 12.0 0.0 0.00 0.00 0.00 50 1014.4
20260830145502 77 0 0.0 0.0 0.00 0.00 0.00 51 1014.8
20260830145001 76 293 4.0 0.0 0.00 0.00 0.00 51 1014.8
20260830144502 76 276 9.0 0.0 0.00 0.00 0.00 51 1014.8
20260830144002 76 283 8.0 0.0 0.00 0.00 0.00 50 1014.8
20260830143502 76 287 3.0 0.0 0.00 0.00 0.00 50 1014.8
20260830143002 77 287 8.0 0.0 0.00 0.00 0.00 50 1014.9
20260830142501 77 257 3.0 0.0 0.00 0.00 0.00 50 1014.9
20260830142002 76 315 5.0 0.0 0.00 0.00 0.00 52 1015.0
20260830141501 76 286 7.0 0.0 0.00 0.00 0.00 51 1015.0
20260830141002 77 253 6.0 0.0 0.00 0.00 0.00 50 1015.0
20260830140501 76 299 3.0 0.0 0.00 0.00 0.00 51 1014.9
20260830140002 77 274 4.0 0.0 0.00 0.00 0.00 50 1015.0
20260830135502 76 245 6.0 0.0 0.00 0.00 0.00 51 1014.9
20260830135002 76 243 3.0 0.0 0.00 0.00 0.00 52 1015.0
20260830134502 77 287 2.0 0.0 0.00 0.00 0.00 52 1015.0
20260830134001 76 287 2.0 0.0 0.00 0.00 0.00 51 1015.1
20260830133502 77 241 6.0 0.0 0.00 0.00 0.00 51 1015.0
20260830133002 77 284 7.0 0.0 0.00 0.00 0.00 50 1015.1
20260830132502 76 316 4.0 0.0 0.00 0.00 0.00 51 1015.2
20260830132001 76 220 2.0 0.0 0.00 0.00 0.00 51 1015.3
20260830131502 77 281 8.0 0.0 0.00 0.00 0.00 51 1015.2
20260830131001 76 274 4.0 0.0 0.00 0.00 0.00 51 1015.2
20260830130502 76 276 6.0 0.0 0.00 0.00 0.00 52 1015.2
20260830130001 75 293 4.0 0.0 0.00 0.00 0.00 52 1015.2
20260830125501 75 272 6.0 0.0 0.00 0.00 0.00 51 1015.3
20260830125002 75 249 8.0 0.0 0.00 0.00 0.00 52 1015.3
20260830124501 75 292 6.0 0.0 0.00 0.00 0.00 52 1015.3
20260830124002 75 275 5.0 0.0 0.00 0.00 0.00 52 1015.3
20260830123502 75 300 11.0 0.0 0.00 0.00 0.00 52 1015.5
20260830123002 75 321 3.0 0.0 0.00 0.00 0.00 53 1015.4
20260830122501 74 274 4.0 0.0 0.00 0.00 0.00 53 1015.6
20260830122002 74 295 7.0 0.0 0.00 0.00 0.00 52 1015.5
20260830121501 75 305 5.0 0.0 0.00 0.00 0.00 53 1015.5
20260830121001 74 334 7.0 0.0 0.00 0.00 0.00 53 1015.6
20260830120501 75 274 7.0 0.0 0.00 0.00 0.00 53 1015.6
20260830120001 75 264 9.0 0.0 0.00 0.00 0.00 54 1015.6
20260830115502 75 258 5.0 0.0 0.00 0.00 0.00 53 1015.6
20260830115002 75 259 10.0 0.0 0.00 0.00 0.00 54 1015.7
20260830114502 74 279 8.0 0.0 0.00 0.00 0.00 55 1015.7
20260830114001 73 257 5.0 0.0 0.00 0.00 0.00 55 1015.6
20260830113502 73 248 6.0 0.0 0.00 0.00 0.00 54 1015.6
20260830113001 73 278 10.0 0.0 0.00 0.00 0.00 54 1015.7
20260830112502 74 294 5.0 0.0 0.00 0.00 0.00 54 1015.7
20260830112001 73 270 8.0 0.0 0.00 0.00 0.00 55 1015.7
20260830111501 74 276 9.0 0.0 0.00 0.00 0.00 55 1015.8
20260830111003 73 311 10.0 0.0 0.00 0.00 0.00 54 1015.9
20260830110501 73 291 13.0 0.0 0.00 0.00 0.00 54 1015.9
20260830110002 73 282 8.0 0.0 0.00 0.00 0.00 54 1015.9
20260830105501 73 295 4.0 0.0 0.00 0.00 0.00 54 1016.0
20260830105002 73 255 5.0 0.0 0.00 0.00 0.00 55 1015.9
20260830104501 73 301 8.0 0.0 0.00 0.00 0.00 54 1016.0
20260830104002 73 313 14.0 0.0 0.00 0.00 0.00 55 1016.0
20260830103501 73 285 10.0 0.0 0.00 0.00 0.00 55 1016.1
20260830103001 73 246 5.0 0.0 0.00 0.00 0.00 57 1016.1
20260830102502 73 302 6.0 0.0 0.00 0.00 0.00 56 1016.2
20260830102001 73 243 3.0 0.0 0.00 0.00 0.00 57 1016.3
20260830101502 73 296 3.0 0.0 0.00 0.00 0.00 57 1016.5
20260830101001 73 312 8.0 0.0 0.00 0.00 0.00 57 1016.4
20260830100502 72 271 7.0 0.0 0.00 0.00 0.00 56 1016.3
20260830100001 72 290 5.0 0.0 0.00 0.00 0.00 58 1016.3
20260830095502 73 282 4.0 0.0 0.00 0.00 0.00 56 1016.4
20260830095001 73 200 1.0 0.0 0.00 0.00 0.00 57 1016.4
20260830094502 72 252 4.0 0.0 0.00 0.00 0.00 57 1016.3
20260830094002 72 267 3.0 0.0 0.00 0.00 0.00 58 1016.4
20260830093502 72 250 8.0 0.0 0.00 0.00 0.00 59 1016.4
20260830093002 73 231 7.0 0.0 0.00 0.00 0.00 60 1016.4
20260830092501 72 245 10.0 0.0 0.00 0.00 0.00 58 1016.5
20260830092002 72 235 5.0 0.0 0.00 0.00 0.00 60 1016.5
20260830091501 72 234 5.0 0.0 0.00 0.00 0.00 61 1016.5
20260830091002 71 216 8.0 0.0 0.00 0.00 0.00 61 1016.5
20260830090501 71 240 6.0 0.0 0.00 0.00 0.00 60 1016.5
20260830090002 71 247 5.0 0.0 0.00 0.00 0.00 61 1016.5
20260830085502 71 246 8.0 0.0 0.00 0.00 0.00 60 1016.5
20260830085001 71 222 8.0 0.0 0.00 0.00 0.00 61 1016.5
20260830084502 71 206 5.0 0.0 0.00 0.00 0.00 63 1016.6
20260830084001 71 217 9.0 0.0 0.00 0.00 0.00 65 1016.5
20260830083502 70 246 4.0 0.0 0.00 0.00 0.00 64 1016.6
20260830083002 70 232 6.0 0.0 0.00 0.00 0.00 65 1016.6
20260830082502 71 241 2.0 0.0 0.00 0.00 0.00 65 1016.6
20260830082002 70 244 2.0 0.0 0.00 0.00 0.00 65 1016.6
20260830081502 69 202 8.0 0.0 0.00 0.00 0.00 67 1016.6
20260830081002 69 240 6.0 0.0 0.00 0.00 0.00 66 1016.6
20260830080501 69 241 5.0 0.0 0.00 0.00 0.00 65 1016.5
20260830080002 69 232 5.0 0.0 0.00 0.00 0.00 66 1016.6
20260830075501 69 218 6.0 0.0 0.00 0.00 0.00 66 1016.6
20260830075002 68 241 3.0 0.0 0.00 0.00 0.00 66 1016.7
20260830074501 68 212 4.0 0.0 0.00 0.00 0.00 67 1016.6
20260830074002 68 221 5.0 0.0 0.00 0.00 0.00 67 1016.6
20260830073501 68 236 6.0 0.0 0.00 0.00 0.00 68 1016.6
20260830073002 68 241 6.0 0.0 0.00 0.00 0.00 67 1016.7
20260830072502 67 237 1.0 0.0 0.00 0.00 0.00 68 1016.6
20260830072002 68 237 1.0 0.0 0.00 0.00 0.00 67 1016.6
20260830071502 67 237 1.0 0.0 0.00 0.00 0.00 69 1016.6
20260830071001 67 238 4.0 0.0 0.00 0.00 0.00 69 1016.5
20260830070502 66 254 4.0 0.0 0.00 0.00 0.00 70 1016.6
20260830070001 66 250 4.0 0.0 0.00 0.00 0.00 70 1016.6
20260830065502 66 230 4.0 0.0 0.00 0.00 0.00 70 1016.6
20260830065001 66 265 3.0 0.0 0.00 0.00 0.00 69 1016.7
20260830064502 66 266 3.0 0.0 0.00 0.00 0.00 71 1016.6
20260830064001 65 263 3.0 0.0 0.00 0.00 0.00 70 1016.6
20260830063502 65 281 1.0 0.0 0.00 0.00 0.00 70 1016.6
20260830063001 65 248 2.0 0.0 0.00 0.00 0.00 71 1016.6
20260830062502 64 258 2.0 0.0 0.00 0.00 0.00 72 1016.5
20260830062001 64 259 3.0 0.0 0.00 0.00 0.00 73 1016.6
20260830061502 63 259 2.0 0.0 0.00 0.00 0.00 74 1016.6
20260830061002 63 253 3.0 0.0 0.00 0.00 0.00 74 1016.6
20260830060501 63 264 4.0 0.0 0.00 0.00 0.00 74 1016.6
20260830060002 63 263 3.0 0.0 0.00 0.00 0.00 75 1016.5
20260830055501 63 243 2.0 0.0 0.00 0.00 0.00 75 1016.5
20260830055002 63 241 3.0 0.0 0.00 0.00 0.00 75 1016.5
20260830054501 63 236 2.0 0.0 0.00 0.00 0.00 76 1016.4
20260830054002 63 211 4.0 0.0 0.00 0.00 0.00 75 1016.5
20260830053501 63 210 5.0 0.0 0.00 0.00 0.00 75 1016.4
20260830053002 63 209 4.0 0.0 0.00 0.00 0.00 76 1016.4
20260830052502 63 214 6.0 0.0 0.00 0.00 0.00 76 1016.4
20260830052002 63 224 3.0 0.0 0.00 0.00 0.00 76 1016.4
20260830051502 63 259 2.0 0.0 0.00 0.00 0.00 74 1016.5
20260830051002 63 241 3.0 0.0 0.00 0.00 0.00 75 1016.4
20260830050502 63 222 3.0 0.0 0.00 0.00 0.00 76 1016.4
20260830050001 62 242 2.0 0.0 0.00 0.00 0.00 78 1016.4
20260830045502 62 241 3.0 0.0 0.00 0.00 0.00 77 1016.3
20260830045001 62 239 3.0 0.0 0.00 0.00 0.00 77 1016.3
20260830044502 62 243 2.0 0.0 0.00 0.00 0.00 77 1016.3
20260830044002 62 248 2.0 0.0 0.00 0.00 0.00 79 1016.3
20260830043502 62 244 3.0 0.0 0.00 0.00 0.00 78 1016.2
20260830043002 62 249 3.0 0.0 0.00 0.00 0.00 76 1016.2
20260830042501 62 243 2.0 0.0 0.00 0.00 0.00 77 1016.3
20260830042002 62 240 1.0 0.0 0.00 0.00 0.00 77 1016.3
20260830041501 62 241 3.0 0.0 0.00 0.00 0.00 77 1016.2
20260830041001 62 251 4.0 0.0 0.00 0.00 0.00 77 1016.2
20260830040501 62 253 2.0 0.0 0.00 0.00 0.00 77 1016.1
20260830040001 63 238 3.0 0.0 0.00 0.00 0.00 77 1016.1
20260830035502 62 244 2.0 0.0 0.00 0.00 0.00 78 1016.1
20260830035001 62 250 4.0 0.0 0.00 0.00 0.00 78 1016.1
20260830034501 62 256 0.0 0.0 0.00 0.00 0.00 79 1016.1
20260830034002 62 246 2.0 0.0 0.00 0.00 0.00 78 1016.0
20260830033501 62 225 4.0 0.0 0.00 0.00 0.00 77 1016.0
20260830033001 62 239 3.0 0.0 0.00 0.00 0.00 78 1016.0
20260830032502 62 241 3.0 0.0 0.00 0.00 0.00 77 1015.9
20260830032001 62 236 6.0 0.0 0.00 0.00 0.00 77 1016.0
20260830031501 62 244 3.0 0.0 0.00 0.00 0.00 77 1016.0
20260830031002 62 245 4.0 0.0 0.00 0.00 0.00 78 1016.1
20260830030501 62 239 4.0 0.0 0.00 0.00 0.00 78 1016.1
20260830030002 62 239 2.0 0.0 0.00 0.00 0.00 77 1016.0
20260830025502 62 259 2.0 0.0 0.00 0.00 0.00 76 1016.0
20260830025001 63 238 4.0 0.0 0.00 0.00 0.00 76 1016.0
20260830024501 62 232 2.0 0.0 0.00 0.00 0.00 77 1016.0
20260830024002 62 271 5.0 0.0 0.00 0.00 0.00 77 1016.0
20260830023501 62 255 3.0 0.0 0.00 0.00 0.00 77 1016.0
20260830023001 62 242 2.0 0.0 0.00 0.00 0.00 77 1016.1
20260830022502 62 247 4.0 0.0 0.00 0.00 0.00 78 1016.0
20260830022001 62 241 4.0 0.0 0.00 0.00 0.00 78 1016.0
20260830021501 62 247 5.0 0.0 0.00 0.00 0.00 78 1016.1
20260830021002 62 242 2.0 0.0 0.00 0.00 0.00 79 1016.0
20260830020501 62 232 1.0 0.0 0.00 0.00 0.00 79 1016.0
20260830020001 62 243 3.0 0.0 0.00 0.00 0.00 79 1016.2